Weather History for Sumter, SC

Change the Weather History Date:

Tuesday, February 5, 2013

  Actual Average Record
Temperature  
Mean Temperature 47 °F -  
Max Temperature 66 °F 58 °F 75 °F (2012)
Min Temperature 28 °F 33 °F 28 °F (2013)
Degree Days  
Heating Degree Days 18    
Moisture  
Dew Point 38 °F    
Average Humidity 69    
Maximum Humidity 100    
Minimum Humidity 34    
Precipitation  
Precipitation 0.00 in - - ()
Sea Level Pressure  
Sea Level Pressure 30.00 in    
Wind  
Wind Speed 3 mph (SSW)    
Max Wind Speed 15 mph    
Max Gust Speed 24 mph    
Visibility 10 miles    
Events      
Averages and records for this station are not official NWS values.
T = Trace of Precipitation, MM = Missing Value Source: NWS Daily Summary

Daily Weather History Graph

Daily Weather History Graph

Search for Another Location

Airport:

Trip Planner

Search our weather history database for the weather conditions in past years. The results will help you decide how hot, cold, wet, or windy it might be!

Date:

Astronomy

Feb. 05, 2013 Rise Set
Actual Time 7:15 AM EST 5:56 PM EST
Civil Twilight 6:49 AM EST 6:22 PM EST
Nautical Twilight 6:19 AM EST 6:51 PM EST
Astronomical Twilight 5:50 AM EST 7:21 PM EST
Moon 2:50 AM EST (2/5) 1:17 PM EST (2/5)
Length of Visible Light 11h 33m
Length of Day
10h 41m
Waning Crescent, 27% of the Moon is Illuminated
Feb 5
Waning Crescent
Feb 10
New
Feb 17
First Quarter
Feb 25
Full
Mar 4
Last Quarter

Hourly Weather History & Observations

Time (EST) Temp. Windchill Dew Point Humidity Pressure Visibility Wind Dir Wind Speed Gust Speed Precip Events Conditions
12:15 AM 37.4 °F - 33.8 °F 87% 30.07 in 10.0 mi Calm Calm - N/A   Clear
12:35 AM 37.4 °F - 33.8 °F 87% 30.06 in 10.0 mi Calm Calm - N/A   Clear
12:55 AM 37.4 °F - 33.8 °F 87% 30.05 in 10.0 mi Calm Calm - N/A   Clear
1:15 AM 37.4 °F - 33.8 °F 87% 30.04 in 10.0 mi Calm Calm - N/A   Clear
1:35 AM 37.4 °F - 33.8 °F 87% 30.03 in 10.0 mi Calm Calm - N/A   Clear
1:55 AM 37.4 °F - 33.8 °F 87% 30.02 in 10.0 mi Calm Calm - N/A   Clear
2:15 AM 39.2 °F - 33.8 °F 81% 30.01 in 10.0 mi Calm Calm - N/A   Clear
2:35 AM 39.2 °F - 35.6 °F 87% 30.01 in 10.0 mi Calm Calm - N/A   Clear
2:55 AM 37.4 °F - 35.6 °F 93% 30.01 in 10.0 mi Calm Calm - N/A   Clear
3:15 AM 37.4 °F - 35.6 °F 93% 30.01 in 10.0 mi Calm Calm - N/A   Clear
3:35 AM 37.4 °F - 35.6 °F 93% 30.00 in 10.0 mi Calm Calm - N/A   Clear
3:55 AM 35.6 °F - 32.0 °F 87% 30.00 in 10.0 mi Calm Calm - N/A   Clear
4:15 AM 32.0 °F - 32.0 °F 100% 30.00 in 10.0 mi Calm Calm - N/A   Clear
4:35 AM 32.0 °F - 32.0 °F 100% 30.00 in 10.0 mi Calm Calm - N/A   Clear
4:55 AM 32.0 °F - 32.0 °F 100% 30.00 in 10.0 mi Calm Calm - N/A   Clear
5:15 AM 32.0 °F - 32.0 °F 100% 30.01 in 10.0 mi Calm Calm - N/A   Clear
5:35 AM 32.0 °F - 32.0 °F 100% 30.01 in 10.0 mi Calm Calm - N/A   Clear
5:55 AM 30.2 °F - 30.2 °F 100% 30.01 in 8.0 mi Calm Calm - N/A   Clear
6:15 AM 30.2 °F - 30.2 °F 100% 30.02 in 8.0 mi Calm Calm - N/A   Clear
6:35 AM 28.4 °F - 28.4 °F 100% 30.02 in 9.0 mi Calm Calm - N/A   Clear
6:55 AM 32.0 °F - 32.0 °F 100% 30.02 in 10.0 mi Calm Calm - N/A   Clear
7:15 AM 30.2 °F - 30.2 °F 100% 30.03 in 10.0 mi Calm Calm - N/A   Clear
7:35 AM 30.2 °F - 30.2 °F 100% 30.04 in 10.0 mi Calm Calm - N/A   Clear
7:55 AM 32.0 °F - 32.0 °F 100% 30.05 in 10.0 mi Calm Calm - N/A   Clear
8:15 AM 35.6 °F 31.7 °F 35.6 °F 100% 30.06 in 10.0 mi SSW 4.6 mph - N/A   Clear
8:35 AM 41.0 °F 37.1 °F 37.4 °F 87% 30.06 in 10.0 mi South 5.8 mph - N/A   Clear
8:55 AM 44.6 °F 41.4 °F 39.2 °F 81% 30.05 in 10.0 mi South 5.8 mph - N/A   Clear
9:15 AM 46.4 °F 42.9 °F 39.2 °F 76% 30.05 in 10.0 mi South 6.9 mph - N/A   Clear
9:35 AM 48.2 °F - 39.2 °F 71% 30.05 in 10.0 mi South 5.8 mph - N/A   Clear
9:55 AM 50.0 °F - 39.2 °F 66% 30.05 in 10.0 mi South 6.9 mph - N/A   Clear
10:15 AM 55.4 °F - 39.2 °F 54% 30.05 in 10.0 mi SSW 10.4 mph - N/A   Clear
10:35 AM 57.2 °F - 37.4 °F 48% 30.05 in 10.0 mi South 10.4 mph - N/A   Clear
10:55 AM 59.0 °F - 37.4 °F 45% 30.04 in 10.0 mi SW 6.9 mph 17.3 mph N/A   Clear
11:15 AM 59.0 °F - 35.6 °F 42% 30.04 in 10.0 mi SSW 10.4 mph 17.3 mph N/A   Partly Cloudy
11:35 AM 62.6 °F - 35.6 °F 37% 30.03 in 10.0 mi SW 9.2 mph 18.4 mph N/A   Partly Cloudy
11:55 AM 60.8 °F - 37.4 °F 42% 30.03 in 10.0 mi SSW 8.1 mph - N/A   Partly Cloudy
12:15 PM 60.8 °F - 35.6 °F 39% 30.02 in 10.0 mi SSW 12.7 mph 17.3 mph N/A   Scattered Clouds
12:35 PM 60.8 °F - 35.6 °F 39% 30.00 in 10.0 mi SSW 6.9 mph - N/A   Scattered Clouds
12:55 PM 62.6 °F - 35.6 °F 37% 29.99 in 10.0 mi SW 10.4 mph 16.1 mph N/A   Partly Cloudy
1:15 PM 64.4 °F - 35.6 °F 34% 29.98 in 10.0 mi SW 11.5 mph 18.4 mph N/A   Partly Cloudy
1:35 PM 64.4 °F - 35.6 °F 34% 29.98 in 10.0 mi SSW 15.0 mph 20.7 mph N/A   Clear
1:55 PM 66.2 °F - 37.4 °F 35% 29.97 in 10.0 mi SW 9.2 mph 23.0 mph N/A   Scattered Clouds
2:15 PM 66.2 °F - 37.4 °F 35% 29.96 in 10.0 mi SSW 11.5 mph 18.4 mph N/A   Scattered Clouds
2:35 PM 66.2 °F - 37.4 °F 35% 29.95 in 10.0 mi SSW 15.0 mph 24.2 mph N/A   Partly Cloudy
2:55 PM 66.2 °F - 37.4 °F 35% 29.94 in 10.0 mi South 13.8 mph 19.6 mph N/A   Partly Cloudy
3:15 PM 66.2 °F - 39.2 °F 37% 29.94 in 10.0 mi SW 9.2 mph 21.9 mph N/A   Mostly Cloudy
3:35 PM 66.2 °F - 39.2 °F 37% 29.94 in 10.0 mi SW 8.1 mph - N/A   Mostly Cloudy
3:55 PM 66.2 °F - 39.2 °F 37% 29.94 in 10.0 mi SW 6.9 mph 18.4 mph N/A   Partly Cloudy
4:15 PM 66.2 °F - 41.0 °F 40% 29.94 in 10.0 mi SW 6.9 mph - N/A   Clear
4:35 PM 66.2 °F - 41.0 °F 40% 29.93 in 10.0 mi SSW 10.4 mph - N/A   Clear
4:55 PM 66.2 °F - 42.8 °F 43% 29.94 in 10.0 mi SSW 11.5 mph 17.3 mph N/A   Clear
5:15 PM 64.4 °F - 42.8 °F 45% 29.94 in 10.0 mi SSW 6.9 mph - N/A   Clear
5:35 PM 64.4 °F - 42.8 °F 45% 29.94 in 10.0 mi SSW 9.2 mph - N/A   Clear
5:55 PM 62.6 °F - 42.8 °F 48% 29.95 in 10.0 mi SSW 8.1 mph - N/A   Clear
6:15 PM 59.0 °F - 44.6 °F 59% 29.95 in 10.0 mi SSW 5.8 mph - N/A   Clear
6:35 PM 57.2 °F - 42.8 °F 59% 29.95 in 10.0 mi SSW 5.8 mph - N/A   Clear
6:55 PM 55.4 °F - 42.8 °F 63% 29.95 in 10.0 mi South 6.9 mph - N/A   Clear
7:15 PM 57.2 °F - 42.8 °F 59% 29.97 in 10.0 mi SW 3.5 mph - N/A   Clear
7:35 PM 55.4 °F - 42.8 °F 63% 29.98 in 10.0 mi SW 3.5 mph - N/A   Clear
7:55 PM 53.6 °F - 42.8 °F 67% 29.98 in 10.0 mi South 4.6 mph - N/A   Clear
8:15 PM 50.0 °F - 42.8 °F 76% 29.99 in 10.0 mi SSW 4.6 mph - N/A   Clear
8:35 PM 55.4 °F - 44.6 °F 67% 29.99 in 10.0 mi SSW 4.6 mph - N/A   Clear
8:55 PM 55.4 °F - 44.6 °F 67% 30.00 in 10.0 mi SW 4.6 mph - N/A   Clear
9:15 PM 57.2 °F - 44.6 °F 63% 30.00 in 10.0 mi SW 4.6 mph - N/A   Clear
9:35 PM 57.2 °F - 46.4 °F 67% 30.01 in 10.0 mi SSW 6.9 mph - N/A   Clear
9:55 PM 57.2 °F - 46.4 °F 67% 30.01 in 10.0 mi SW 4.6 mph - N/A   Clear
10:15 PM 53.6 °F - 44.6 °F 72% 30.02 in 10.0 mi SSW 4.6 mph - N/A   Clear
10:35 PM 53.6 °F - 44.6 °F 72% 30.02 in 10.0 mi SW 3.5 mph - N/A   Clear
10:55 PM 53.6 °F - 44.6 °F 72% 30.02 in 10.0 mi SSW 3.5 mph - N/A   Clear
11:15 PM 51.8 °F - 44.6 °F 76% 30.02 in 10.0 mi SSW 3.5 mph - N/A   Clear
11:35 PM 50.0 °F - 44.6 °F 82% 30.02 in 10.0 mi South 4.6 mph - N/A   Clear
11:55 PM 46.4 °F 44.3 °F 42.8 °F 87% 30.02 in 10.0 mi SSW 4.6 mph - N/A   Clear